Tracking 29892 objects as of 21-Nov-2024
HD Live streaming from Space Station
objects crossing your sky now

STARLINK-30823

Track STARLINK-30823 now!
10-day predictions
STARLINK-30823 is classified as:


NORAD ID: 58248
Int'l Code: 2023-171U
Perigee: 564.3 km
Apogee: 568.0 km
Inclination: 43.0 °
Period: 95.8 minutes
Semi major axis: 6937 km
RCS: Unknown
Launch date: November 8, 2023
Source: United States (US)
Launch site: AIR FORCE EASTERN TEST RANGE (AFETR)
Your satellite tracking list
Your tracking list is empty




NASA's NSSDC Master Catalog

Two Line Element Set (TLE):
1 58248U 23171U   24325.54148080  .00003894  00000-0  30309-3 0  9999
2 58248  43.0067 342.1802 0002630 254.8248 105.2304 15.02551238 58407
Source of the keplerian elements: AFSPC